Location: *
(48.8489°N, 2.3218°E)
Time: 13:00:06
(UTC+00:00)

Cosmos 2322 Rocket - Pass Details

Date: 23 August 2019
Orbit: 834 x 849 km, 71.0° (Epoch: 21 September)

Event Time Altitude Azimuth Distance (km) Brightness Sun altitude
Rises 23:01:20 0° 328° (NNW) 3,402 6.4 -28.8°
Reaches altitude 10° 23:03:51 10° 323° (NW) 2,461 5.4 -28.9°
Enters shadow 23:08:41 47° 270° (W) 1,099 2.8 -29.1°
